Location: Plymouth
(43.7490°N, 87.9770°W)
Time: 21:35:14
(UTC-05:00)

Daily predictions for brighter satellites

Satellite Brightness Start Highest point End
(mag) Time Altitude Azimuth Time Altitude Azimuth Time Altitude Azimuth
Resurs 01 Rocket 2.1 19:34:53 10° SE 19:39:02 42° ENE 19:43:13 10° N
FREGAT/IRIS 2.8 19:38:49 10° S 19:41:52 77° WSW 19:44:57 10° NNW
Cosmos 1833 Rocket 3.3 19:38:40 10° N 19:43:53 37° NE 19:49:04 10° ESE
FENGYUN 3A 3.7 19:38:59 10° SSE 19:44:22 73° ENE 19:49:45 10° N
Cosmos 1544 3.7 19:41:42 10° SSE 19:45:03 35° E 19:48:26 10° NNE
Lacrosse 5 2.0 19:40:12 10° SW 19:45:17 82° NW 19:50:24 10° NE
Cosmos 1605 Rocket 4.1 19:40:06 10° SSE 19:46:13 57° E 19:52:25 10° NNE
Cosmos 1437 Rocket 3.9 19:45:00 10° SSW 19:48:55 52° WNW 19:52:57 10° N
Meteor 1-22 Rocket 4.4 19:44:00 10° S 19:49:53 90° ESE 19:55:59 10° N
Spot 2 Rocket 3.6 19:46:56 10° SSE 19:51:55 57° ENE 19:56:57 10° N
Cosmos 2278 Rocket 2.2 19:47:24 10° SSW 19:53:05 87° ESE 19:58:48 10° NNE
Cosmos 1867 4.0 19:49:01 10° S 19:54:05 42° ESE 19:59:12 10° NE
Cosmos 1470 4.2 19:52:40 10° SE 19:55:33 19° E 19:58:26 10° NE
BREEZE-M DEB (TANK) 4.0 19:55:51 10° S 19:58:47 26° ESE 20:05:33 10° ENE
Cosmos 2123 Rocket 4.1 19:52:51 10° N 19:59:13 89° W 20:05:29 10° S
ATLAS 5 CENTAUR R/B 2.6 19:55:52 10° S 19:59:50 28° ESE 20:04:05 10° ENE
SJ-6B 3.7 19:59:21 10° S 20:02:57 49° W 20:06:37 10° NNW
Timation 1 Rocket 4.4 19:58:24 10° S 20:04:19 63° ESE 20:10:16 10° NNE
Cosmos 1340 Rocket 4.0 20:01:29 10° NNE 20:04:48 24° ENE 20:07:15 14° ESE
Envisat 3.8 20:05:45 10° SE 20:10:09 32° ENE 20:14:39 10° N
Cosmos 2297 3.8 20:04:38 10° S 20:10:12 56° ESE 20:15:49 10° NNE
H-2A R/B 2.8 20:07:43 10° SSE 20:11:37 85° WSW 20:15:36 10° NNW
Resurs 1-3 3.6 20:12:30 10° SSE 20:16:54 89° ENE 20:21:19 10° NNW
Cosmos 1125 Rocket 3.4 20:14:20 10° SSW 20:19:29 74° ESE 20:24:43 10° NNE
Cosmos 1408 Rocket 3.7 20:15:46 10° N 20:20:11 56° E 20:24:34 10° SSE
Cosmos 1048 Rocket 3.9 20:16:12 10° NNW 20:21:21 79° ENE 20:26:28 10° SSE
Geosat 4.1 20:17:10 10° NE 20:22:04 50° ESE 20:26:56 10° S
Cosmos 2082 Rocket 2.2 20:16:23 10° NNW 20:22:07 79° ENE 20:27:47 10° SSE
CZ-3 Stage 3 4.4 19:34:46 10° WSW 20:22:29 49° SSW 20:29:16 17° SE
CZ-2C R/B 3.1 20:22:19 10° NNW 20:24:12 28° W 20:25:47 10° SSW
ERS-1 Rocket 4.1 20:23:18 19° E 20:25:28 25° ENE 20:29:33 10° N
SeaSat 1 3.3 20:21:21 10° S 20:26:07 50° WSW 20:30:56 10° NW
Cosmos 2061 Rocket 4.4 20:21:10 10° SSE 20:27:09 44° E 20:33:11 10° NNE
Cosmos 1758 3.5 20:26:03 10° SSW 20:30:01 74° W 20:34:02 10° N
Timation 2 Rocket 3.9 20:24:13 10° NNW 20:30:35 76° ENE 20:35:50 14° SSE
ALOS 3.8 20:27:01 10° SSW 20:31:21 37° W 20:35:42 10° NNW
Cosmos 2151 4.4 20:29:19 10° NNE 20:32:27 20° ENE 20:32:36 20° ENE
Cosmos 1842 Rocket 4.5 20:34:36 26° ESE 20:35:13 27° E 20:38:56 10° NNE
GPS 2-05 Rocket1 4.5 20:33:02 10° SW 20:35:46 21° S 20:36:15 20° SSE
Cosmos 1953 2.7 20:33:08 10° SSW 20:37:10 67° W 20:41:13 10° N
Cosmos 1271 Rocket 2.8 20:33:45 10° S 20:37:40 58° E 20:41:39 10° NNE
Helios 1B rocket 2.3 20:33:44 10° NNE 20:37:52 65° ESE 20:41:56 10° S
Cosmos 1459 Rocket 4.0 20:31:49 10° SSE 20:37:54 57° E 20:43:56 10° NNE
Cosmos 482 Debris 4.1 20:38:52 10° NW 20:40:02 29° NNW 20:40:02 29° NNW
BREEZE-M DEB (TANK) 3.1 20:38:42 10° NW 20:40:50 33° NNE 20:41:29 28° NE
SAR-Lupe-4 3.8 20:41:14 13° S 20:44:24 70° WSW 20:47:59 10° NNW
Cosmos 1076 Rocket 4.2 20:40:33 10° NNW 20:44:42 53° W 20:48:49 10° S
Cosmos 2173 Rocket 3.9 20:38:51 10° S 20:44:55 63° E 20:51:07 10° NNE
Cosmos 1939 Rocket 3.0 20:44:15 31° SE 20:45:59 54° ENE 20:50:02 10° N
Abrixas 4.5 20:44:04 10° W 20:46:10 19° SW 20:46:58 17° SSW
Meteor 1-29 2.8 20:42:42 10° NNE 20:46:10 65° ESE 20:49:25 11° S
YAOGAN 6 3.7 20:47:36 29° ENE 20:47:36 29° ENE 20:50:41 10° N
Spot 1 4.5 20:43:20 10° S 20:48:01 76° WSW 20:52:59 10° NNW
Cosmos 1674 2.9 20:44:22 10° NNW 20:48:08 69° W 20:51:30 13° S
SWAS 4.4 20:46:19 10° SSW 20:50:36 89° WNW 20:54:57 10° NNE
CZ-4B DEB 2.7 20:52:57 44° S 20:53:49 78° WSW 20:56:56 10° NNW
COSMOS 2487 3.7 20:50:59 10° NNW 20:54:22 41° WSW 20:56:56 15° S
Helios 1A 3.5 20:53:09 11° S 20:57:03 58° WSW 21:01:12 10° NNW
Lacrosse 5 rocket 1.0 20:53:32 10° NW 20:57:29 87° SW 20:58:14 56° SE
Cosmos 2251 Rocket 3.7 20:54:30 10° NNW 20:59:45 54° ENE 21:01:24 39° ESE
Meteor 2-17 Rocket 4.4 20:55:14 10° S 21:01:15 60° E 21:07:18 10° NNE
ISS -3.5 20:59:25 10° SW 21:02:05 54° SSW 21:02:05 54° SSW
USA 186 3.6 21:04:49 17° WSW 21:05:19 18° W 21:06:58 10° NW
GP-B 4.0 21:03:43 10° SSW 21:08:01 49° W 21:12:21 10° NNW
CZ-3B DEB 3.7 21:02:38 10° W 21:10:47 37° NNW 21:14:42 11° NE
Cosmos-2242 3.8 21:09:13 10° SSW 21:13:21 50° WNW 21:17:31 10° N
Cosmos 2369 Rocket 4.1 21:18:38 14° NE 21:18:38 14° NE 21:19:28 10° NE
Resurs 01 Rocket 4.2 21:12:30 10° SW 21:15:42 19° W 21:18:55 10° NW
Cosmos 1626 4.3 21:13:31 10° NNE 21:14:33 16° NNE 21:14:33 16° NNE
Cosmos 2016 Rocket 3.8 21:10:40 10° S 21:16:52 80° E 21:23:03 10° N
USA 215 3.2 21:12:35 10° NE 21:19:02 60° SE 21:25:27 10° SW
MetOp-B 4.2 21:23:52 53° E 21:24:20 55° ENE 21:29:34 10° N
Cosmos 1725 Rocket 3.9 21:23:25 38° SSE 21:25:49 66° E 21:31:57 10° NNE
Cosmos 1356 Rocket 3.3 21:23:14 10° NNW 21:27:16 80° WNW 21:27:16 80° WNW
Cosmos 1833 Rocket 4.1 21:22:42 10° NW 21:27:45 35° WSW 21:31:55 14° SSW
Lacrosse 5 3.9 21:24:43 10° WNW 21:28:55 25° NNW 21:33:09 10° NE
Cosmos 2221 4.5 21:33:37 19° NNE 21:33:37 19° NNE 21:34:58 10° NNE
SPOT 5 3.2 21:33:35 56° ENE 21:33:35 56° ENE 21:38:46 10° N
NOAA 11 4.1 21:34:16 64° E 21:34:40 66° ENE 21:40:08 10° N
Cosmos 494 Rocket 4.0 21:32:16 10° NNW 21:37:23 71° WSW 21:38:10 60° SSW
H-2A R/B 4.2 21:40:21 15° NNE 21:40:21 15° NNE 21:41:20 10° NNE
Cosmos 1500 Rocket 3.9 21:34:35 10° NNW 21:38:50 58° W 21:39:09 56° WSW
ATLAS 5 CENTAUR R/B 3.0 21:39:43 10° WSW 21:44:16 42° NW 21:49:15 10° NNE
Tsikada Rocket 3.9 21:38:07 10° N 21:44:21 89° ENE 21:45:44 58° S
Terra 3.8 21:47:56 18° NNE 21:47:56 18° NNE 21:49:42 10° NNE
Cosmos 2346 Rocket 4.5 21:45:23 10° N 21:51:27 64° ENE 21:51:27 64° ENE
USA 267 3.6 21:50:51 45° ENE 21:52:15 52° NNE 21:58:33 10° NW
Cosmos 2058 4.1 21:54:52 10° NNW 21:57:44 40° NW 21:57:44 40° NW
H-2A R/B 2.9 22:02:15 43° NNE 22:02:15 43° NNE 22:06:04 10° N
ERS-1 Rocket 3.9 22:03:19 40° WSW 22:04:00 42° W 22:08:48 10° NNW
MOS 1-B Rocket 4.4 22:04:47 66° ESE 22:05:37 71° ENE 22:12:30 10° N
ARGOS 3.4 22:14:10 64° NW 22:14:10 64° NW 22:18:46 10° NNW
Cosmos 2233 Rocket 4.2 22:31:21 64° WNW 22:31:21 64° WNW 22:37:11 10° N
CZ-4C R/B 4.4 23:02:44 19° NNE 23:02:44 19° NNE 23:04:27 10° NNE
Cosmos 2369 Rocket 3.7 23:00:18 33° NNW 23:00:18 33° NNW 23:03:49 10° NNE
USA 215 3.9 22:55:42 10° NE 23:01:58 50° NNW 23:08:13 10° W
Cosmos 2227 Rocket 4.4 23:08:37 10° N 23:10:52 18° NNE 23:10:52 18° NNE
Lacrosse 5 4.3 23:09:58 10° NW 23:12:59 18° N 23:12:59 18° N
Terra 4.4 23:26:48 17° NNW 23:26:48 17° NNW 23:28:01 10° NNW
Cosmos 1943 Rocket 4.3 23:29:55 20° N 23:29:55 20° N 23:31:41 10° NNE
